Terminal Aerodrome Forecast
Issued by NWS

Home | Current Version | Previous Version | Text Only | Print | Product List | Glossary Off
Versions: 1 2 3 4 5 6 7 8 9 10 11 12 13 14 15 16 17 18 19 20

000
FTUS43 KABR 290500
TAFMBG
TAF
KMBG 290534Z 2906/3006 34017G26KT P6SM OVC015
     FM291200 35014KT P6SM OVC025
     FM291800 02008KT P6SM BKN035
     FM292300 09006KT P6SM SKC=

USA.gov is the U.S. government's official web portal to all federal, state and local government web resources and services.